OpenBCM V1.08-5-g2f4a (Linux)

Packet Radio Mailbox

IZ3LSV

[San Dona' di P. JN]

 Login: GUEST





  
I0OJJ  > KEPS     08.05.25 02:44l 364 Lines 17239 Bytes #49 (0) @ AMSAT
BID : ORB25128.1
Read: GUEST
Subj: 2Line Orbital Elements 25128.AMSAT
Path: IZ3LSV<IK6IHL<IK7NXU<HB9ON<DK0WUE<PD0LPM<PI8ZTM<PI8LAP<VE2PKT<I0OJJ<
      I0OJJ
Sent: 250508/0025z @:I0OJJ.ITA.EU [Rome] obcm1.08-6-g5b69

>From i0ojj%i0ojj.ita.eu@i0ojj.ampr.org Thu May  8 02:25:08 2025
Received: from i0ojj.ampr.org by i0ojj.ampr.org (JNOS2.0p.7) with SMTP
	id AA17031306 ; Thu, 08 May 2025 02:25:08 +0200
Message-Id: <ORB25128.1@i0ojj.bbs>
>From: i0ojj@i0ojj.ita.eu
X-JNOS-User-Port: Telnet   (i0ojj @ 44.134.109.10)  -> Sending message

From: I0OJJ @ I0OJJ.ITA.EU (Gustavo)
To:   KEPS @ AMSAT
X-Info: This message was generated automatically


QST de W1STR

AMSAT Orbital Elements for Amateur Satellites in TLE Format
>From Orbital Analysis Office
New England Sci-Tech STEM Education Center
Natick, MA May 08, 2025
To all radio amateurs


These element sets describe the orbits of various satellites 
in use by the amateur radio community. For details see:
www.amsat.org/keplerian-elements-formats/

A daily update of element sets is available at:
www.amsat.org/tle/daily-bulletin.txt
or without bulletin text:
www.amsat.org/tle/dailytle.txt


AO-07
1 07530U 74089B   25126.96964784 -.00000026  00000-0  13092-3 0  9999
2 07530 101.9941 130.8751 0012207 184.4328 231.1556 12.53688863309611
UO-11
1 14781U 84021B   25127.54593041  .00001687  00000-0  18375-3 0  9993
2 14781  97.7516  94.5758 0009528  86.5685 273.6622 14.89286401217728
AO-27
1 22825U 93061C   25127.14036939  .00000174  00000-0  83493-4 0  9993
2 22825  98.7387 188.5253 0007945 203.6335 156.4484 14.30787581649209
FO-29
1 24278U 96046B   25127.18640132  .00000026  00000-0  59683-4 0  9993
2 24278  98.5795  25.4687 0350955  69.1745 294.6608 13.53246454418509
NOAA-15
1 25338U 98030A   25127.85579268  .00000270  00000-0  12859-3 0  9995
2 25338  98.5375 153.7712 0011522  95.4936 264.7559 14.26960342403735
GO-32
1 25397U 98043D   25126.90217832  .00000133  00000-0  77636-4 0  9998
2 25397  98.9685 105.3226 0000804   4.7505 355.3680 14.24306153393717
ISS
1 25544U 98067A   25127.53760064  .00009287  00000-0  17412-3 0  9992
2 25544  51.6373 148.4145 0002481  89.3508  59.4969 15.49396065508858
NO-44
1 26931U 01043C   25127.18449334  .00000216  00000-0  11198-3 0  9994
2 26931  67.0509 214.1824 0005737 273.0829  86.9616 14.31718108232484
SO-50
1 27607U 02058C   25126.87069720  .00001609  00000-0  21844-3 0  9990
2 27607  64.5539 304.5804 0052316 341.8996  18.0245 14.81534713204235
CO-55
1 27844U 03031E   25127.02268265  .00000487  00000-0  23131-3 0  9992
2 27844  98.6769 135.7285 0008390 287.1646  72.8614 14.23969339133898
CO-57
1 27848U 03031J   25126.95546205  .00000418  00000-0  20380-3 0  9997
2 27848  98.6797 135.6931 0008460 306.9590  53.0813 14.23307657133639
RS-22
1 27939U 03042A   25127.85943725  .00001560  00000-0  25508-3 0  9994
2 27939  98.3258 296.5272 0012679 112.0483  24.3828 14.72267208156013
NOAA-18
1 28654U 05018A   25127.85056708  .00000249  00000-0  15540-3 0  9998
2 28654  98.8420 207.6945 0013603 218.3685 141.6521 14.13593034 29124
CO-58
1 28895U 05043F   25127.86697685  .00002029  00000-0  33930-3 0  9990
2 28895  98.2446 271.8197 0015414  54.5139 305.7502 14.70902932 42368
CO-65
1 32785U 08021C   25127.14602832  .00006739  00000-0  49070-3 0  9997
2 32785  97.7810  98.0753 0009095 334.6713  25.4065 15.04077260924123
AAUSAT2
1 32788U 08021F   25127.54626722  .00636473  16060-3  21176-2 0  9994
2 32788  97.5935 125.4376 0008564 145.9016 214.2808 15.90207134928281
CO-66
1 32791U 08021J   25127.15829865  .00015064  00000-0  74580-3 0  9997
2 32791  97.7260 106.4792 0001599 304.4068  55.7013 15.17886507925503
RS-30
1 32953U 08025A   25127.80797616  .00000022  00000-0  84187-4 0  9994
2 32953  82.5026 247.5550 0020525 117.1670 243.1505 12.43163771769469
NOAA-19
1 33591U 09005A   25127.85171891  .00000235  00000-0  14930-3 0  9992
2 33591  98.9988 192.3699 0014847  96.7469 263.5393 14.13357324837482
SRMSAT
1 37841U 11058D   25126.32717787  .00000518  00000-0  13773-3 0  9994
2 37841  19.9735   1.8242 0011757  48.5725 107.9832 14.11424552700262
ZACUBE-1
1 39417U 13066B   25127.35446292  .00005583  00000-0  48879-3 0  9992
2 39417  97.7768  84.5578 0045127 160.6238 199.6711 14.96325142619942
Delfi-N3xt
1 39428U 13066N   25127.34485821  .00007065  00000-0  72532-3 0  9994
2 39428  97.8359  45.3802 0087377 109.4658 251.6024 14.87862012614310
GOMX-1
1 39430U 13066Q   25127.89533168  .00001821  00000-0  29029-3 0  9992
2 39430  97.6879 348.5615 0131378 297.4242  61.3651 14.67519906610616
LO-74
1 39440U 13066AA  25127.76742606  .00004681  00000-0  47844-3 0  9990
2 39440  97.8471  72.5642 0060672 289.0426  70.4225 14.89703882617752
AO-73
1 39444U 13066AE  25127.43898642  .00008540  00000-0  64652-3 0  9994
2 39444  97.7789  89.2397 0042385 137.1946 223.2591 15.01827845619207
DTUSAT-2
1 40030U 14033W   25127.44649292  .00007960  00000-0  52386-3 0  9994
2 40030  98.0533  97.6803 0009798 159.8391 200.3224 15.07804222591918
EO-80
1 40032U 14033Y   25127.13673482  .00009193  00000-0  60311-3 0  9997
2 40032  98.0406  97.0570 0010390 109.6234 250.6115 15.07864627591858
LILACSAT-2
1 40908U 15049K   25127.89485601  .00011128  00000-0  29820-3 0  9995
2 40908  97.5085 147.4674 0007284 277.4964  82.5453 15.38148378533208
IO-86
1 40931U 15052B   25038.81889873  .00001817  00000-0  15548-3 0  9993
2 40931   6.0001 108.1159 0012838 187.7041 172.2889 14.78568669506492
Horyu-4
1 41340U 16012D   25127.86074881  .00021712  00000-0  60684-3 0  9991
2 41340  30.9972 351.7402 0007255  66.7746 293.3662 15.35434645507756
Lapan A3
1 41603U 16040E   25127.85962701  .00003675  00000-0  13029-3 0  9999
2 41603  97.1377 133.7561 0012024  35.3994 324.8043 15.29627531492783
CAS-2T
1 41847U 16066G   25126.78392493  .00001076  00000-0  16380-3 0  9999
2 41847  98.4207 201.5380 0345189 280.7944  75.4575 14.43392517446140
CAS-4B
1 42759U 17034B   25127.52122254  .00063399  00000-0  77814-3 0  9992
2 42759  43.0071 158.3108 0018117  57.3808 302.8801 15.59248193437439
CAS-4A
1 42761U 17034D   25127.51435018  .00063959  00000-0  75491-3 0  9990
2 42761  43.0106 155.8265 0019288  62.1952 298.0864 15.60239576437455
TechnoSat
1 42829U 17042E   25127.72550947  .00003844  00000-0  30070-3 0  9997
2 42829  97.3930 298.0073 0014989  37.0862 323.1396 15.01528440425798
AO-91
1 43017U 17073E   25126.87173347  .00007847  00000-0  40883-3 0  9991
2 43017  97.5289 358.5015 0172755 281.5410  76.6465 15.04207229404141
S-Net D
1 43186U 18014G   25127.20315878  .00006279  00000-0  37437-3 0  9998
2 43186  97.5655  30.4532 0008718 351.9834   8.1255 15.11490687397333
S-Net B
1 43187U 18014H   25127.73774416  .00005729  00000-0  34205-3 0  9993
2 43187  97.5664  30.9525 0009228 344.0922  16.0017 15.11476942397410
S-Net A
1 43188U 18014J   25127.26985498  .00006468  00000-0  38541-3 0  9994
2 43188  97.5669  30.6350 0009122 347.1226  12.9770 15.11496925397349
S-Net C
1 43189U 18014K   25127.80626530  .00005714  00000-0  34110-3 0  9995
2 43189  97.5689  31.1746 0010412 335.1162  24.9564 15.11474573395973
Ten-Koh
1 43677U 18084G   25127.05296066  .00002965  00000-0  24090-3 0  9999
2 43677  98.0901 297.9782 0007158  38.8856 321.2880 15.00418233355216
PO-101
1 43678U 18084H   25127.86389285  .00002144  00000-0  18601-3 0  9995
2 43678  98.1017 302.7478 0008938  38.9275 321.2589 14.98179657355481
QO-100
1 43700U 18090A   25127.17373154  .00000142  00000-0  00000+0 0  9996
2 43700   0.0137 261.5689 0002053 180.9653 231.0527  1.00270831 23845
MinXSS-2
1 43758U 18099A   25126.73874733  .00017294  00000-0  70141-3 0  9991
2 43758  97.5037 192.6886 0010490 271.9109  88.0927 15.24642750351811
AO-95
1 43770U 18099N   25127.13874266  .00009647  00000-0  49609-3 0  9999
2 43770  97.4944 185.6049 0009525 335.9610  24.1177 15.16623015351484
RANGE-A
1 43773U 18099R   25127.84163467  .00004137  00000-0  26690-3 0  9998
2 43773  97.4511 177.1949 0009798 309.1795  50.8562 15.08781644351287
MOVE-II
1 43780U 18099Y   25127.12218609  .00165882  00000-0  17454-2 0  9998
2 43780  97.4682 200.5229 0005629 223.4041 136.6775 15.63742806352555
SNUSat 2
1 43782U 18099AA  25127.70045006  .00009389  00000-0  51833-3 0  9992
2 43782  97.4626 183.1764 0010575 265.3252  94.6772 15.14103459351527
SnugLite
1 43784U 18099AC  25127.70386370  .00011034  00000-0  56219-3 0  9999
2 43784  97.4440 182.6764 0002010 255.3269 104.7742 15.16946329351656
ITASat 1
1 43786U 18099AE  25127.86877239  .00005881  00000-0  34066-3 0  9996
2 43786  97.4596 182.9455 0013064 324.5248  35.5113 15.12515679351511
EAGLET 1
1 43790U 18099AJ  25127.12771748  .00004220  00000-0  27231-3 0  9990
2 43790  97.4791 182.2844 0010574 308.7353  51.2930 15.08765312351026
ESEO
1 43792U 18099AL  25127.17055529  .00001499  00000-0  11724-3 0  9994
2 43792  97.4482 176.0353 0010838 280.5498  79.4506 15.02474993350803
CSIM
1 43793U 18099AM  25127.73438037  .00121318  00000-0  12889-2 0  9991
2 43793  97.4847 203.3907 0007647 222.9558 137.1104 15.63624212352490
JO-97
1 43803U 18099AX  25127.15183156  .00012487  00000-0  58124-3 0  9997
2 43803  97.4694 186.5421 0006061 254.0891 105.9676 15.20054303351699
Suomi 100
1 43804U 18099AY  25127.11371373  .00010942  00000-0  54456-3 0  9992
2 43804  97.4756 185.8929 0011043 261.0017  98.9967 15.17723612351627
ISAT
1 43879U 18111D   25127.71325212  .00022839  00000-0  82049-3 0  9993
2 43879  97.5978  41.4095 0007255 328.0503  32.0295 15.28641251346651
UWE-4
1 43880U 18111E   25127.87287559  .00014758  00000-0  59396-3 0  9993
2 43880  97.5922  40.2712 0011005 336.0759  23.9965 15.24934920346641
Sparrow
1 43881U 18111F   25127.19746555  .00023712  00000-0  82299-3 0  9993
2 43881  97.6115  43.6347 0007232  17.5602 342.5887 15.29760757346680
